Wind_Speed
35 33 35 38 38 38 38 34 29 27 23 19 20 24 26 27 27 27 27 26 23 30 38 36 34 34 31 31 29 23 20 20 25 30 31 30 30 30 29 26 25 22 16 14 14 15 15 14 12 13 11 11 12 11 10 11 12 13 13 12 13 14 13 13 12 11 12 12 12 11 11 10 9 8 8 8 8 8 7 6 4 1 3 4 5 7
35 38 40 38 35 34 36 33 28 28 25 22 23 25 26 28 27 25 25 27 25 31 40 38 34 33 32 32 31 26 23 23 22 24 27 29 30 28 25 23 23 19 15 17 18 17 16 13 13 15 15 12 11 11 12 13 13 14 14 13 12 13 12 11 12 12 12 12 12 11 11 10 9 9 10 10 9 9 8 6 3 2 4 5 7 8
38 43 39 35 32 30 31 32 30 29 28 27 27 28 27 26 25 23 23 27 28 32 41 40 33 29 31 33 29 27 28 29 26 21 21 25 27 25 23 23 24 21 18 19 20 18 16 15 15 15 15 15 14 13 13 14 15 15 14 14 13 12 11 11 13 13 13 12 11 10 10 10 10 11 11 11 10 10 8 5 3 4 4 6 8 8
38 41 37 32 30 28 28 31 32 30 29 31 31 31 30 25 24 24 24 25 27 31 37 36 31 25 26 31 28 27 29 29 27 23 21 21 21 20 21 22 22 20 19 19 20 17 14 16 16 15 15 15 15 14 14 14 16 16 15 15 14 12 11 12 14 13 13 12 11 10 11 12 13 13 13 11 11 11 8 5 5 3 5 7 7 7
33 34 35 31 28 29 30 30 34 33 30 33 35 33 31 28 23 22 24 22 22 30 31 27 29 25 24 28 28 27 27 27 25 23 24 23 22 20 19 21 19 18 18 17 20 17 14 16 17 17 18 15 14 13 13 14 15 16 15 16 15 12 12 13 14 13 13 12 11 11 13 14 14 13 13 12 11 9 7 6 3 3 6 7 6 6
28 27 32 33 30 33 33 32 35 36 32 33 37 35 31 28 22 21 24 21 19 30 29 24 18 15 22 25 25 27 27 27 25 24 26 25 23 21 20 21 20 19 19 17 19 18 17 19 19 19 20 17 16 15 15 16 16 15 15 16 15 14 13 13 12 12 12 12 12 13 15 15 13 12 13 12 10 7 6 6 1 4 6 6 5 6
27 24 31 34 33 33 35 35 35 36 34 34 37 36 32 29 27 26 25 19 18 25 25 26 15 6 17 24 25 29 29 28 27 25 27 26 23 22 22 23 22 22 22 20 20 20 20 22 22 20 20 20 19 18 19 19 17 15 15 15 14 13 12 10 10 11 12 12 14 16 16 14 14 14 14 13 10 7 7 4 1 4 5 5 5 6
30 27 32 35 34 34 37 38 35 35 36 36 35 35 33 31 30 28 24 20 19 23 23 26 22 10 15 24 26 29 30 30 30 29 27 25 24 24 24 24 24 24 25 25 25 24 23 23 22 20 20 21 20 19 19 19 17 16 15 14 14 13 12 10 10 12 13 13 16 17 16 15 15 15 14 12 10 8 6 2 2 4 5 5 5 6
31 30 33 36 37 37 39 39 34 33 35 34 32 31 31 28 28 27 22 20 18 22 20 23 23 11 10 23 28 28 31 29 29 29 26 24 24 25 26 26 26 26 26 28 28 25 25 23 21 21 20 21 21 19 18 19 18 17 16 15 15 14 13 12 11 12 13 15 18 17 15 14 15 14 14 13 11 8 5 2 3 5 5 4 4 6
29 31 31 33 39 39 37 36 33 32 34 31 27 26 26 25 25 24 22 21 16 13 18 24 26 12 6 23 32 29 30 30 28 26 23 21 24 25 25 25 25 26 27 29 28 26 25 23 21 22 22 21 21 20 20 19 19 18 17 16 15 15 14 13 13 13 14 17 19 17 15 14 13 14 14 12 10 7 5 2 4 6 5 4 5 7
27 30 29 32 39 38 33 33 34 31 29 28 26 24 24 25 25 22 22 23 14 7 16 25 29 18 7 21 36 30 25 26 26 26 24 22 25 25 23 23 25 25 25 25 25 25 25 23 24 24 24 24 23 23 22 20 19 18 16 15 15 14 12 13 13 14 16 19 18 16 15 15 14 14 14 10 8 8 4 2 5 6 5 4 5 6
28 30 32 33 35 35 31 31 33 31 28 27 28 27 23 21 22 20 22 20 8 4 15 22 25 20 11 18 31 26 21 23 22 23 24 23 25 25 21 22 23 22 22 21 22 25 26 26 27 26 25 26 25 24 22 21 20 18 16 15 14 13 12 13 14 16 19 19 18 16 16 15 15 14 12 10 9 7 3 3 6 6 4 4 5 6
33 33 33 30 32 35 32 30 33 34 31 30 32 30 18 11 12 11 11 10 3 3 11 21 21 16 13 19 27 24 22 24 21 18 18 18 21 25 23 22 21 20 19 20 22 23 23 25 27 26 26 26 24 24 22 21 20 18 17 16 14 14 12 13 15 17 19 19 18 17 16 16 15 13 11 10 9 5 3 4 6 6 4 4 6 7
28 31 32 30 32 37 36 35 37 37 35 36 38 32 16 5 5 5 3 2 2 4 8 17 14 10 12 20 27 27 24 20 17 16 14 12 17 21 23 22 21 20 18 19 24 23 21 24 26 26 26 25 24 23 22 21 20 18 17 16 15 14 14 14 16 18 19 19 19 18 18 17 15 13 11 10 7 4 4 5 6 5 3 5 6 7
20 23 34 37 34 38 40 36 36 36 33 36 38 32 19 10 6 4 1 3 2 4 6 9 5 3 7 10 13 19 21 18 19 18 13 11 14 18 22 22 21 22 20 21 25 24 24 26 26 26 25 24 23 23 22 21 19 17 15 15 16 16 16 16 17 18 18 19 19 18 17 17 15 13 12 9 6 4 4 6 7 5 4 6 7 7
22 21 35 37 29 35 40 33 32 32 29 33 36 33 26 18 12 8 4 4 2 1 4 7 5 5 8 8 7 8 16 23 22 20 16 15 15 15 18 21 21 24 25 26 28 28 29 30 28 28 26 24 23 22 22 20 17 15 15 17 18 18 18 18 17 18 19 19 18 17 17 17 16 15 12 8 6 5 5 6 7 5 5 6 7 7
21 18 32 35 26 31 37 32 33 30 26 30 34 35 31 19 15 14 9 6 4 1 4 9 11 11 9 6 6 7 22 28 25 23 19 17 16 13 15 18 21 24 27 28 29 30 32 31 30 29 26 24 23 22 22 20 16 15 16 18 20 20 19 18 18 18 19 19 18 18 19 18 17 15 11 8 6 6 6 6 6 5 5 6 7 7
20 16 30 38 30 30 34 32 33 30 26 30 32 33 30 18 17 18 11 6 5 1 3 11 14 14 8 2 2 13 26 27 26 25 20 19 18 13 14 18 20 22 24 25 27 29 30 30 29 28 26 23 22 22 22 19 16 15 17 19 20 20 19 19 20 19 19 19 19 19 18 18 17 14 11 9 7 6 6 6 6 5 5 6 7 7
24 15 27 38 30 30 36 31 29 30 29 29 28 30 28 15 14 16 9 6 7 2 1 8 12 13 11 8 11 22 28 26 28 28 23 22 20 15 15 18 20 21 23 24 25 26 27 29 29 28 25 22 22 24 23 19 16 16 18 20 20 20 19 20 21 20 20 19 18 18 18 17 16 13 10 9 8 6 6 6 6 5 5 6 7 7
26 11 19 35 29 28 35 31 27 29 28 27 25 28 29 18 12 14 9 8 9 4 1 4 6 9 14 13 15 23 26 28 32 31 26 23 18 15 15 16 19 22 23 23 24 24 26 28 28 27 25 23 24 26 23 19 17 18 19 21 21 21 21 21 22 21 20 19 18 18 17 17 15 12 11 10 8 6 6 6 5 6 6 7 7 7
28 13 18 31 28 25 33 36 33 28 26 30 28 27 30 23 16 15 11 12 14 7 3 2 2 8 14 16 18 22 22 24 27 25 24 22 17 15 15 15 18 21 22 23 24 26 28 29 28 26 25 25 26 26 23 20 19 20 20 21 21 22 22 22 22 21 20 19 18 18 17 16 14 12 12 10 8 6 6 6 6 7 7 7 7 7
25 21 23 30 29 28 33 36 36 28 24 31 28 24 31 27 19 12 7 14 19 10 7 7 4 8 12 16 21 26 26 23 18 16 19 20 17 15 16 17 18 20 21 23 25 27 29 28 27 26 28 28 28 27 24 22 21 21 20 20 20 21 22 22 22 22 21 19 18 18 17 16 14 13 12 10 8 7 7 7 7 8 8 8 8 7
21 22 28 33 31 29 27 31 38 30 21 29 27 20 28 30 24 14 6 13 19 13 13 13 8 8 9 12 19 23 26 23 16 14 16 18 18 16 17 19 18 18 20 22 25 27 27 26 25 26 29 30 29 27 25 23 22 21 20 19 19 20 22 23 24 23 22 20 19 18 17 15 14 13 12 10 9 8 8 7 8 9 9 9 8 7
18 19 28 30 25 25 24 26 37 31 19 28 33 24 26 32 31 21 11 15 17 13 14 11 5 7 4 6 14 17 21 21 16 14 16 18 19 18 18 20 19 20 22 23 25 27 27 26 25 27 31 32 30 28 25 23 22 21 20 19 19 20 21 23 24 24 23 22 19 18 17 15 14 13 12 11 9 9 8 9 9 10 10 10 8 7
16 19 27 22 14 17 19 17 27 34 26 26 33 30 25 27 31 27 19 16 11 9 14 9 4 9 7 6 11 12 16 19 16 16 18 16 17 19 19 20 21 22 22 22 24 26 25 25 24 27 31 33 31 29 26 23 21 20 20 20 19 20 20 21 23 23 23 22 20 18 17 16 15 14 13 11 10 10 10 10 11 12 12 10 8 8
16 22 28 21 10 8 12 12 21 34 30 21 25 32 27 21 26 30 24 15 8 9 12 8 6 12 12 9 12 15 18 16 12 16 19 15 13 18 20 20 20 21 20 20 22 25 25 24 24 26 31 34 32 30 27 23 22 22 22 20 19 18 18 19 20 21 21 21 20 19 18 17 16 14 13 12 11 11 12 12 13 13 12 9 8 9
17 24 26 24 17 9 11 16 22 30 27 18 21 31 30 21 22 29 26 16 10 10 10 5 8 14 16 14 13 16 20 17 12 15 19 18 16 19 20 17 17 18 18 18 21 24 25 26 26 27 32 34 32 30 27 24 24 24 22 20 19 18 17 17 18 19 20 19 19 18 18 17 16 15 14 13 13 13 13 14 14 13 11 10 9 8
19 24 25 24 18 13 15 20 23 29 27 18 20 28 30 24 19 22 24 19 14 10 7 7 12 15 16 13 12 14 17 18 15 13 14 16 17 19 19 18 18 18 19 19 21 24 26 27 28 31 34 34 32 30 27 25 26 25 23 21 20 19 18 17 17 17 17 17 17 17 17 16 15 14 14 14 14 15 14 14 13 11 10 10 10 9
18 21 25 23 17 15 20 22 22 26 28 21 19 23 27 28 24 21 21 22 21 14 8 9 12 13 14 14 13 13 12 13 14 13 13 14 16 17 19 21 21 20 21 20 21 23 27 29 32 33 33 33 32 30 28 27 27 26 24 24 22 21 20 18 17 17 16 16 16 15 15 15 14 14 14 14 14 14 13 13 12 11 11 10 10 9
17 19 22 22 19 15 17 22 24 27 28 26 22 22 25 29 29 23 20 22 24 20 12 7 5 8 11 11 13 15 13 10 11 12 14 15 16 18 20 21 22 22 21 20 21 23 27 30 30 31 32 33 32 31 32 31 28 25 25 25 23 22 20 17 17 17 16 15 14 13 13 13 13 13 13 13 14 13 13 13 12 11 11 11 10 10
17 17 18 18 16 12 10 16 24 30 31 28 27 27 25 27 30 25 19 20 25 25 18 8 5 5 7 10 14 15 15 13 12 12 14 14 16 18 20 21 23 23 22 21 22 24 26 27 24 25 31 36 34 34 37 34 27 23 24 24 23 21 19 17 17 16 13 12 10 10 10 10 10 11 12 13 13 13 13 12 12 12 12 11 11 10
18 15 14 13 10 7 6 6 13 26 31 29 30 31 25 24 29 27 21 18 22 26 23 15 10 8 6 10 16 16 13 11 9 11 14 14 15 17 18 19 21 22 22 22 21 23 25 25 23 22 28 33 33 36 39 34 25 22 23 24 23 21 19 18 17 15 12 11 10 10 10 11 13 14 13 12 12 12 12 12 12 13 13 12 11 10
19 13 8 9 4 2 6 4 8 19 20 19 25 28 25 23 26 26 23 19 17 21 22 17 11 8 6 12 18 16 11 9 7 8 12 13 14 15 16 16 16 18 21 22 21 21 23 25 25 24 27 31 32 36 38 32 24 22 23 25 23 21 20 19 17 16 14 13 13 12 14 17 19 19 17 14 12 12 12 13 14 14 13 12 11 11
16 10 3 5 4 5 4 4 7 11 8 7 14 20 23 23 22 23 24 23 17 16 17 14 8 7 10 14 16 14 11 9 7 7 10 12 13 12 12 12 12 15 20 21 20 20 22 25 26 27 29 31 33 36 37 29 24 24 25 25 22 21 21 20 18 18 16 16 16 15 15 18 22 23 20 16 14 14 14 14 15 15 13 12 11 11
13 8 2 5 6 5 4 5 4 3 2 6 8 12 21 22 19 19 21 23 22 19 17 14 8 7 10 12 12 13 10 8 8 7 9 10 11 10 8 8 10 15 19 20 20 21 23 25 27 29 31 32 34 37 35 28 26 27 27 24 22 22 22 21 20 19 17 16 16 16 15 17 21 23 22 19 17 16 15 15 15 14 13 12 11 10
14 7 4 5 7 5 5 6 4 2 2 6 5 9 20 21 17 20 20 20 24 25 22 18 10 7 11 12 12 12 9 8 9 11 11 11 11 11 9 7 8 12 15 17 20 22 25 27 29 30 33 35 36 35 30 24 25 27 27 25 24 23 22 22 21 19 17 17 16 17 17 19 22 24 23 22 20 18 15 15 15 13 12 11 11 10
15 8 3 4 7 7 6 7 4 1 1 5 5 9 19 18 15 21 22 18 20 22 24 24 16 9 11 14 14 13 11 10 10 12 14 15 12 11 11 10 9 11 13 16 20 22 24 25 26 26 28 30 31 30 25 24 27 30 29 26 24 23 23 23 22 20 19 18 18 18 19 21 23 24 23 22 19 16 15 14 13 12 11 11 11 9
16 12 7 3 5 9 7 6 3 1 1 7 6 8 16 15 13 18 21 17 17 17 19 24 22 17 15 15 15 14 13 13 13 12 14 16 14 11 11 12 11 10 12 17 20 22 23 23 22 21 22 24 26 26 24 24 26 27 27 25 24 23 23 24 23 21 20 19 19 19 20 21 22 22 21 19 16 15 14 13 12 11 11 12 11 10
14 13 10 6 6 12 11 5 3 3 5 8 7 8 14 13 11 17 18 15 16 19 19 23 26 26 22 18 17 16 14 14 15 14 13 13 13 11 11 12 12 11 13 17 20 22 22 21 20 22 23 23 23 22 21 22 23 22 22 22 22 22 22 23 22 21 20 19 19 20 20 20 19 18 17 16 14 14 13 13 12 12 12 13 12 10
17 14 12 9 7 13 13 7 4 4 7 7 8 11 14 13 12 15 14 11 16 21 22 24 28 30 28 23 19 18 15 14 14 15 13 12 13 11 9 10 12 12 14 17 19 22 22 21 23 25 24 22 21 19 19 21 23 22 20 20 21 21 20 20 21 21 21 21 21 20 19 18 17 16 15 14 14 13 13 13 13 13 13 13 12 9
18 15 13 11 7 8 10 7 5 4 6 7 8 10 11 13 14 14 13 13 17 20 19 21 26 28 27 24 22 19 17 14 13 15 15 14 14 11 8 9 12 13 14 15 16 18 18 19 21 21 18 18 20 20 20 22 23 22 21 21 20 19 19 19 20 21 22 22 21 20 19 17 16 14 13 13 13 13 13 14 13 13 14 13 12 10
16 13 13 13 8 6 8 8 6 5 9 10 9 8 9 13 13 12 13 15 17 19 19 18 19 19 18 18 19 17 15 14 14 16 17 14 11 9 7 8 12 14 14 14 14 14 15 16 17 17 17 19 21 21 21 22 22 22 22 21 20 19 19 20 21 21 22 21 20 19 17 15 14 13 13 13 13 14 14 13 13 13 15 15 13 11
14 12 12 14 9 5 7 9 5 4 10 11 8 7 10 13 13 13 15 17 17 20 20 18 16 15 15 16 16 15 14 14 15 17 18 14 11 9 7 7 9 11 12 14 15 15 17 18 20 21 23 23 23 22 22 22 21 22 22 21 21 21 20 21 21 21 21 20 19 18 15 13 12 12 13 13 13 14 14 13 13 15 17 15 13 12
12 14 12 13 12 7 5 8 6 6 12 12 8 8 11 14 14 15 16 17 18 19 19 19 18 15 14 14 14 15 15 16 16 17 19 17 14 11 8 5 6 8 9 11 13 16 20 23 24 25 26 25 24 22 21 20 22 23 23 22 21 20 19 20 21 21 21 20 18 16 13 12 12 13 14 14 14 14 14 14 16 18 18 16 14 12
12 14 12 12 13 8 4 10 14 14 16 15 9 9 13 14 13 12 13 14 16 17 16 17 18 16 14 13 14 15 15 15 16 17 18 18 17 14 10 5 4 5 6 7 9 13 16 19 20 21 22 21 20 20 20 21 23 24 23 22 21 19 18 19 20 20 20 19 16 13 13 13 14 15 14 14 14 15 15 16 18 18 18 16 14 13
12 13 11 10 10 8 7 11 16 19 19 17 12 10 12 12 9 9 11 12 13 14 14 15 15 13 13 13 14 16 17 17 17 17 17 18 17 14 10 6 5 5 5 6 9 11 12 14 16 17 19 19 18 19 22 23 24 24 23 21 21 20 18 18 18 19 19 17 14 13 14 15 16 15 15 15 16 16 17 17 18 18 18 16 14 13
14 10 8 9 9 9 10 11 13 14 15 15 13 12 12 12 9 8 10 9 8 9 11 13 13 12 12 13 14 16 17 17 16 16 15 16 15 13 10 7 6 6 6 9 11 11 11 13 15 17 20 21 19 20 23 25 25 23 20 19 20 19 17 17 17 17 16 14 14 15 16 16 16 16 16 17 17 17 17 18 19 19 17 15 14 13
15 10 8 10 10 9 10 11 10 8 9 10 11 11 11 12 10 9 8 7 7 7 7 10 13 14 15 16 18 18 17 16 16 15 14 15 15 13 10 7 7 8 9 10 11 11 11 12 14 16 18 20 20 21 23 23 21 18 16 18 19 18 18 17 16 15 15 15 16 17 17 17 17 17 17 17 17 17 17 18 18 17 16 14 13 12
14 9 6 8 10 9 10 11 10 8 7 8 9 9 9 11 11 10 9 7 7 7 7 8 9 11 14 16 18 18 15 13 13 14 14 14 14 12 9 7 7 7 8 9 10 10 11 13 13 14 15 15 16 18 19 19 19 17 17 19 20 18 16 16 15 15 16 17 17 18 18 18 17 17 17 16 16 16 16 17 17 16 15 14 13 12
11 9 7 8 11 11 10 10 10 9 10 10 10 9 9 9 9 9 8 8 8 8 9 9 8 8 11 13 13 13 12 11 12 13 13 12 11 9 7 7 7 7 8 8 9 10 11 12 13 13 12 12 14 17 19 20 20 20 20 21 20 17 15 14 15 16 17 18 19 19 18 17 17 16 16 16 15 16 16 16 16 16 15 15 15 14
8 10 9 10 11 10 10 10 10 10 11 12 11 9 7 7 7 7 7 8 9 9 9 8 7 6 8 9 10 11 11 10 11 12 11 10 9 8 8 8 8 8 9 10 10 9 10 11 12 12 12 14 17 20 22 22 21 21 21 21 19 17 15 15 15 16 17 18 19 18 17 16 16 16 16 16 17 17 17 17 18 18 18 17 16 16
Wind_Direction
190 193 199 202 205 207 202 201 209 206 202 210 213 216 220 223 228 231 229 232 231 224 223 224 225 225 225 227 231 233 233 230 226 224 221 224 231 239 242 245 251 248 246 248 236 226 220 215 218 202 177 164 171 187 196 189 186 191 207 219 219 213 204 201 199 196 197 196 195 196 205 211 206 199 185 163 154 154 155 156 144 138 273 303 351 349
195 204 207 202 201 206 203 199 201 205 205 208 215 219 220 220 226 233 228 225 230 226 223 223 222 222 223 224 226 230 237 240 235 229 228 230 233 237 242 247 246 235 230 240 237 226 217 213 204 182 169 171 177 184 183 178 184 193 203 216 226 221 210 204 198 196 199 197 196 200 205 204 192 179 169 158 154 153 151 141 132 249 281 335 356 347
203 209 209 202 200 201 203 203 200 203 210 214 220 227 231 229 228 238 237 232 236 228 219 218 217 221 226 226 229 235 238 241 241 238 236 235 233 239 248 248 243 231 219 224 227 222 216 212 202 180 168 174 182 181 179 183 192 197 202 213 228 228 217 210 202 200 202 199 197 200 200 190 178 171 163 157 157 155 149 154 197 246 307 352 349 341
207 210 205 200 199 196 202 208 202 201 211 219 225 232 238 236 232 239 237 239 244 223 211 213 213 218 226 224 225 231 231 230 232 231 230 230 234 245 251 245 242 235 223 216 213 210 207 201 192 183 175 179 187 185 190 203 204 203 206 212 222 224 218 214 208 203 203 199 194 192 186 175 168 166 164 164 166 158 153 183 222 275 343 348 338 333
210 209 200 193 195 198 202 207 203 203 212 219 225 231 235 233 238 242 235 243 237 209 202 206 208 213 219 218 216 218 220 219 221 224 225 230 237 244 245 237 234 229 221 212 204 200 198 188 180 183 181 177 185 188 197 206 203 203 206 211 216 214 213 214 209 204 202 198 191 183 174 167 166 170 174 175 168 156 163 198 229 339 345 335 328 320
213 211 197 189 195 201 201 203 202 204 213 221 222 225 228 226 233 240 241 242 207 192 197 194 194 207 209 215 215 208 209 213 217 224 228 234 237 238 238 230 223 216 212 208 201 197 193 185 180 184 184 181 188 193 196 196 193 198 202 206 210 209 213 214 208 204 204 201 190 179 172 169 171 177 179 172 160 163 195 209 266 354 333 326 317 309
210 207 197 192 196 200 200 204 204 203 213 221 216 217 221 220 229 243 256 251 196 183 191 193 197 186 184 203 211 205 208 214 216 220 226 232 235 233 230 223 211 204 204 199 191 185 178 179 182 185 185 186 187 188 192 193 189 191 196 202 207 209 214 215 212 208 206 201 186 179 180 180 180 178 174 165 161 188 217 222 346 341 327 318 306 308
205 201 198 195 195 199 202 205 205 203 211 218 214 214 223 226 235 250 268 267 221 193 186 195 209 205 180 191 197 198 204 209 214 219 226 232 235 231 221 211 200 195 198 192 183 179 175 178 184 184 185 187 187 189 196 198 195 196 200 205 208 211 213 214 214 210 205 196 182 183 192 191 183 175 168 165 170 197 224 242 328 334 329 314 305 316
201 200 199 197 196 201 205 203 201 204 210 217 216 217 226 233 242 251 262 269 241 208 195 193 198 200 188 188 188 194 199 205 216 223 228 231 233 227 215 206 196 190 193 189 182 179 179 181 183 183 184 187 190 195 202 205 205 206 207 210 214 216 215 216 215 210 203 190 181 187 195 187 177 170 169 168 171 192 221 246 330 337 331 318 317 321
200 201 200 200 199 202 206 202 199 204 211 214 212 216 228 236 244 248 253 266 265 228 212 203 196 193 170 182 187 195 203 214 225 228 231 232 228 221 210 206 201 193 192 190 187 185 185 188 188 184 184 188 192 198 204 206 205 204 207 212 216 216 215 216 217 209 197 187 183 188 190 181 173 170 171 168 169 193 224 276 341 337 330 331 324 318
203 201 201 204 203 201 203 203 201 202 209 212 209 215 230 237 240 244 248 257 268 250 227 210 198 198 182 182 193 203 216 224 228 228 228 227 221 211 203 203 202 199 200 202 203 199 191 190 189 183 183 187 192 197 201 202 201 199 203 209 213 213 213 213 212 202 190 186 185 187 184 179 175 170 170 173 183 205 233 313 335 332 336 335 320 317
204 201 204 206 204 200 199 204 203 199 203 209 212 219 227 229 232 239 244 244 247 273 242 217 201 206 208 194 201 216 230 227 229 233 230 225 214 202 197 198 198 198 203 210 213 203 191 187 186 183 183 187 191 195 196 198 199 200 202 207 209 210 211 211 206 194 187 187 187 185 179 176 175 171 173 187 201 215 251 318 325 334 345 331 321 326
207 204 204 204 203 199 197 201 202 203 205 206 212 219 218 213 218 226 239 234 221 290 225 205 207 220 234 231 226 227 227 224 231 237 235 234 218 201 196 197 195 194 195 200 204 200 195 194 189 187 186 187 191 194 194 197 199 201 203 205 207 208 210 207 198 190 188 189 187 183 180 178 178 177 182 196 208 223 262 307 328 342 343 324 329 337
207 203 201 200 199 198 198 198 199 205 206 202 209 214 206 182 192 205 227 186 228 282 200 186 204 237 251 244 236 232 228 222 217 215 217 231 225 211 203 198 197 198 194 194 195 194 200 203 197 193 192 191 194 197 199 201 199 200 203 204 205 205 204 199 192 190 190 188 185 186 186 182 181 186 194 202 213 232 266 307 335 344 328 327 338 342
198 195 196 197 196 196 198 200 200 202 202 201 207 212 214 217 192 174 182 158 192 279 223 189 187 263 260 227 221 236 229 204 193 194 191 199 215 218 210 204 205 204 196 190 189 190 199 203 198 195 195 195 198 202 203 200 198 201 205 207 206 201 198 195 191 192 191 186 187 191 189 185 188 199 205 207 217 239 273 310 336 339 327 337 343 342
200 197 193 195 197 196 198 201 200 198 199 202 206 213 223 231 215 184 160 183 189 341 254 236 228 261 264 232 236 245 199 183 184 183 178 182 191 203 207 205 203 199 193 189 189 193 198 199 195 195 197 196 199 203 200 195 197 202 205 208 205 198 195 194 192 191 190 187 189 194 195 194 200 208 210 212 224 245 274 308 332 335 330 340 341 338
199 197 189 192 197 195 195 195 196 197 197 198 205 213 218 223 220 200 178 198 211 85 250 249 251 257 258 246 263 206 171 174 181 179 177 180 178 181 196 199 196 193 193 193 193 195 195 195 195 196 197 199 201 201 196 193 197 202 204 204 200 196 194 195 194 192 191 192 194 197 201 203 207 211 213 218 229 246 275 309 330 332 329 334 332 332
191 184 186 193 198 194 191 192 196 199 198 198 203 210 212 217 218 200 175 181 195 137 231 235 242 249 240 175 157 169 166 170 178 180 180 182 180 180 187 192 193 194 196 197 194 193 194 196 196 197 199 201 202 200 196 196 200 199 199 199 198 199 199 197 196 194 194 197 199 200 204 208 212 214 216 224 235 248 279 314 327 321 316 319 324 332
192 184 186 195 198 188 188 196 198 194 195 202 204 204 207 216 213 197 173 164 181 148 291 235 233 236 227 195 156 162 169 173 177 181 186 187 181 180 186 190 193 195 198 199 195 191 193 198 198 198 200 200 199 199 198 199 200 196 193 192 195 202 204 199 196 196 196 198 201 203 207 212 215 217 222 231 240 252 283 312 316 300 300 312 322 330
198 192 172 183 185 180 189 202 201 188 189 200 200 200 208 218 213 203 189 165 171 169 218 235 230 227 226 213 178 171 176 179 180 183 190 190 181 182 190 192 195 200 205 207 201 193 195 200 200 199 200 199 199 200 199 198 199 196 193 192 194 198 201 198 195 195 195 197 202 206 210 213 215 220 228 235 243 257 285 303 298 287 292 304 314 321
201 183 149 164 170 178 194 203 202 194 195 201 199 193 199 211 213 210 210 192 179 167 169 197 259 238 225 220 216 209 197 187 184 186 190 191 189 192 197 199 201 205 212 213 203 195 196 197 196 198 198 198 201 201 198 197 197 196 195 195 195 195 196 197 197 197 198 201 205 208 211 213 215 222 230 236 246 262 285 294 287 280 281 291 303 313
193 173 154 163 173 184 198 204 201 200 205 207 207 192 189 201 206 197 210 203 190 178 174 180 224 250 225 214 219 222 217 210 206 203 199 197 197 196 196 202 207 210 217 216 204 199 201 199 194 196 197 197 200 200 197 196 195 195 195 195 196 196 196 198 199 201 203 206 209 211 212 213 217 226 232 238 250 265 283 288 279 272 273 284 298 308
185 171 166 176 189 192 197 203 200 202 210 208 210 200 190 202 209 198 185 195 196 200 192 182 200 239 231 208 203 205 208 212 220 225 215 204 201 198 192 196 205 213 220 219 211 205 204 201 196 196 196 196 198 197 196 196 194 192 193 193 195 196 197 200 204 207 208 209 211 213 214 215 221 228 234 241 251 265 279 280 271 269 273 284 297 306
182 174 170 175 188 191 190 199 201 207 213 201 202 205 197 203 214 215 207 198 201 198 181 167 181 207 193 191 201 201 200 200 207 218 215 205 201 199 193 195 202 209 214 219 218 211 204 202 198 195 195 195 195 195 195 196 193 189 189 191 193 195 199 204 208 211 211 212 215 217 218 220 224 230 236 242 251 262 273 274 271 272 275 284 296 301
185 179 174 166 168 180 181 191 205 212 219 206 201 207 205 203 210 218 221 215 212 192 172 155 165 191 169 162 189 183 178 186 196 209 214 209 201 198 196 198 204 210 216 221 220 215 209 205 199 193 193 194 194 194 193 193 191 188 189 192 192 195 200 206 211 214 215 217 220 221 221 223 225 230 237 243 252 262 271 274 273 273 277 284 287 286
189 182 178 169 160 173 180 191 204 208 217 220 203 204 209 206 205 212 219 216 200 190 185 161 144 174 168 157 172 168 168 179 186 198 208 209 203 200 197 200 208 214 221 226 222 216 210 204 200 197 195 196 196 194 192 192 192 191 191 192 192 195 200 206 210 214 216 218 221 221 222 224 227 232 238 245 254 264 271 272 271 274 277 276 273 278
184 182 180 178 182 197 193 196 202 203 211 217 200 201 212 219 212 210 215 212 185 193 216 199 156 167 162 150 158 175 188 194 179 176 189 194 199 202 201 206 213 217 223 227 222 215 208 203 204 203 198 196 197 195 193 192 191 192 192 190 191 193 198 204 207 210 213 216 219 221 222 225 229 234 241 249 258 265 267 267 269 271 269 265 269 279
176 180 184 185 193 212 200 192 199 206 211 211 200 202 213 223 223 214 214 210 193 203 229 183 163 170 171 167 167 174 191 200 195 189 189 191 198 204 205 206 208 216 223 224 221 217 211 206 204 203 200 197 197 196 194 194 194 194 193 191 191 193 196 202 206 209 213 215 219 223 226 230 235 240 247 254 259 263 263 264 264 262 260 263 272 278
178 180 188 194 201 202 194 193 198 205 213 216 208 204 210 220 227 225 219 207 197 208 214 166 168 177 175 183 194 195 197 196 197 208 213 216 219 212 205 203 207 219 224 222 224 222 217 211 203 200 198 196 196 195 194 198 199 196 193 191 191 194 198 202 207 211 216 220 224 228 232 236 241 246 251 256 258 260 259 259 259 256 257 264 270 274
182 181 190 202 209 200 196 205 204 200 208 215 213 207 209 219 226 227 224 210 200 206 209 185 198 197 181 196 214 216 220 207 195 210 222 230 232 220 211 212 217 223 223 223 228 227 225 219 206 199 198 195 196 197 198 202 202 196 192 191 193 199 203 204 209 215 220 224 229 235 239 243 247 249 252 254 256 256 255 257 258 255 256 260 264 268
185 186 191 200 216 223 222 215 201 193 197 203 209 213 213 219 224 225 225 215 204 206 213 219 237 223 216 235 231 217 213 211 212 225 229 229 230 226 226 226 224 222 220 223 229 229 229 222 208 203 201 192 190 196 200 203 203 195 190 191 197 204 206 207 212 216 220 226 231 237 243 251 256 256 257 256 255 256 257 260 258 254 254 255 257 260
189 187 192 203 225 226 189 164 173 183 190 196 205 216 221 218 219 222 227 222 209 208 217 228 239 249 254 229 213 201 194 199 213 228 232 231 228 227 229 226 223 223 223 225 228 228 227 220 210 205 199 190 189 196 201 205 203 192 187 193 202 207 207 208 212 214 214 217 220 233 250 263 270 270 265 260 260 262 263 262 258 254 253 252 252 255
195 188 190 206 223 168 155 129 142 165 179 195 204 213 220 215 215 222 226 224 214 212 220 224 227 237 222 192 191 188 184 195 208 221 230 231 225 222 224 223 224 229 228 225 222 220 221 217 212 207 204 200 200 203 206 207 200 190 191 198 205 208 208 210 214 215 215 217 225 243 261 267 270 271 269 267 270 271 268 263 257 253 251 250 250 252
191 200 218 197 161 98 131 178 158 148 152 191 200 207 212 208 208 215 220 222 217 208 214 217 206 201 193 185 189 194 193 200 213 225 226 222 213 209 212 218 222 227 227 222 217 218 217 214 213 212 210 206 204 209 214 209 195 192 198 203 207 209 210 214 219 219 220 227 240 254 261 260 260 263 267 272 275 275 271 261 254 250 249 248 247 246
190 202 179 170 159 121 135 161 141 108 132 161 169 197 206 204 203 208 217 226 223 213 213 214 204 194 194 192 199 206 201 197 207 219 219 219 218 211 206 207 208 215 219 216 214 215 215 214 215 214 212 208 209 218 222 208 192 196 202 205 206 208 210 216 219 218 220 229 240 246 247 249 254 261 269 276 277 276 269 257 249 247 246 245 243 240
191 184 138 163 170 149 143 151 136 50 139 153 137 185 199 202 202 205 213 221 218 215 213 210 210 216 214 214 216 213 212 215 218 221 220 222 229 230 233 233 211 207 212 212 212 214 218 223 224 220 218 217 219 225 224 206 196 202 205 204 202 204 209 213 213 214 219 226 235 239 243 251 259 265 271 275 275 272 262 249 245 243 242 243 240 233
191 188 172 175 182 176 147 144 163 1 132 182 171 173 189 194 192 198 207 207 201 205 205 202 205 220 222 227 231 229 233 238 235 231 223 217 221 230 242 250 234 215 211 211 212 216 223 232 234 230 225 223 226 230 225 210 206 205 203 202 201 203 207 209 210 215 221 228 235 243 252 260 265 268 270 270 268 261 250 242 238 238 239 240 235 226
193 198 210 204 192 193 169 139 161 315 225 210 200 175 186 190 182 193 202 195 186 197 204 201 208 221 222 218 218 218 229 242 243 235 221 212 213 224 239 248 243 227 215 212 212 216 225 232 235 235 230 223 224 226 222 219 217 208 200 200 203 206 210 212 216 222 229 235 240 248 258 264 266 267 267 265 260 250 241 237 233 235 238 234 225 222
199 199 215 236 200 189 185 162 161 208 236 236 230 206 200 198 192 196 201 194 186 192 199 202 213 229 231 215 204 208 224 241 239 232 226 219 215 220 231 239 238 224 211 213 216 219 226 227 224 228 229 222 220 221 219 223 226 216 205 205 207 211 215 218 223 230 236 243 248 256 262 264 263 263 260 257 250 241 235 231 230 233 234 227 220 222
213 212 220 229 203 192 193 178 162 213 242 245 240 224 212 209 206 198 197 200 196 193 194 199 210 226 232 225 220 225 234 239 236 236 241 233 220 217 219 225 229 219 208 211 215 219 223 221 216 221 224 218 216 218 216 220 225 221 216 214 215 218 223 226 231 236 240 246 253 259 263 263 260 258 254 248 241 234 229 227 228 232 230 222 218 222
211 216 220 216 211 216 204 170 138 194 212 213 224 224 213 206 205 200 198 204 202 198 195 196 206 220 229 229 229 230 227 227 233 240 240 230 224 227 222 212 214 212 209 211 211 210 211 210 210 216 219 216 217 217 215 217 222 223 221 220 220 221 225 229 233 237 243 249 254 258 259 258 255 250 244 237 230 226 224 224 228 231 226 219 219 223
207 212 214 211 217 241 210 168 128 164 185 183 194 210 210 201 196 196 202 206 207 207 203 200 206 214 212 209 214 217 215 216 228 237 236 231 230 236 232 215 208 205 205 207 207 205 203 202 206 213 218 221 223 222 220 219 219 220 221 221 220 220 224 229 235 241 246 250 253 253 253 251 248 243 236 229 223 221 223 226 230 229 221 218 221 224
207 202 202 207 215 240 207 176 136 154 182 182 188 200 198 192 188 191 198 203 208 212 214 220 222 210 194 196 209 219 226 230 232 232 233 234 234 234 238 230 214 208 206 203 202 203 205 208 215 219 221 225 227 228 228 223 217 217 218 216 216 218 223 230 237 243 247 249 249 248 246 243 240 235 230 225 222 223 226 228 230 226 220 219 222 223
205 199 203 211 218 238 216 170 147 165 181 182 190 196 187 186 190 195 198 202 207 211 219 228 227 216 212 221 227 228 233 237 235 231 233 237 240 241 244 238 211 208 208 201 199 203 206 210 215 218 221 226 229 229 226 218 213 216 219 218 220 223 227 234 240 243 246 247 245 241 239 237 233 229 226 224 224 225 225 227 227 223 219 220 222 220
192 196 205 209 212 222 186 144 145 162 178 181 181 186 188 188 191 196 200 207 211 212 219 225 222 217 222 230 227 223 228 235 235 233 235 237 239 239 238 224 195 200 204 199 203 210 211 213 217 220 222 222 221 221 219 215 216 218 218 221 229 233 235 239 244 246 245 244 241 236 233 232 228 224 223 221 221 222 224 227 227 223 220 221 222 219
183 192 207 207 197 191 171 158 159 165 174 181 176 172 181 183 181 190 200 209 217 218 217 217 213 205 206 217 226 228 231 235 234 231 229 230 233 234 229 213 197 195 199 209 219 223 222 220 221 224 223 219 219 220 218 217 217 215 215 224 233 236 241 247 251 250 244 239 235 231 228 226 225 222 220 219 219 221 224 227 226 223 222 222 220 218
179 178 194 200 192 176 163 167 173 164 158 169 174 169 173 177 170 174 186 194 207 215 214 215 210 199 197 213 230 235 234 234 235 232 229 230 232 230 224 215 206 197 196 210 220 226 230 228 225 226 223 220 224 227 222 217 214 210 217 234 241 242 249 254 253 249 241 233 231 230 227 224 222 219 218 219 220 223 227 229 226 222 223 224 221 220
175 150 144 171 184 179 158 157 173 165 136 146 165 165 169 180 181 179 179 178 179 185 198 210 215 213 215 223 234 239 238 237 239 240 240 240 241 238 233 224 212 204 204 211 217 221 227 231 233 232 226 220 224 230 228 224 220 217 224 242 251 253 257 257 252 244 237 232 230 229 227 224 222 220 221 223 225 229 233 231 226 224 224 225 224 228
172 156 141 157 156 150 148 150 159 161 147 152 164 163 166 180 187 191 195 189 180 178 178 182 189 198 206 215 228 235 232 226 230 236 240 242 242 240 234 229 224 220 216 217 219 220 223 227 231 233 228 220 221 227 229 230 231 228 227 241 254 260 261 258 248 239 234 231 228 226 225 224 223 222 224 226 229 233 232 228 224 223 223 223 225 228
173 179 184 180 158 144 150 161 164 171 177 177 176 175 176 182 187 192 198 197 190 183 180 177 172 173 182 195 213 224 217 208 212 221 227 232 232 227 227 236 246 248 243 238 234 227 225 231 234 235 233 224 219 222 227 232 235 231 229 240 255 264 266 258 245 237 235 231 227 226 226 225 223 222 224 227 229 229 226 222 221 220 220 223 223 220
182 181 179 186 179 165 168 180 189 198 197 191 191 195 198 203 205 200 201 207 205 200 199 200 195 187 188 194 205 214 213 208 210 213 216 220 224 224 228 239 249 254 259 264 262 252 244 244 244 239 231 224 222 224 227 229 231 231 234 243 255 263 265 259 249 241 237 232 229 228 225 223 223 223 225 228 228 224 219 216 217 220 222 222 218 210
Height
3059 3059 3056 3056 3060 3065 3069 3073 3077 3081 3083 3085 3087 3088 3089 3090 3090 3091 3092 3093 3096 3097 3095 3096 3097 3099 3102 3103 3107 3110 3109 3111 3113 3114 3116 3118 3119 3120 3121 3123 3125 3127 3128 3129 3131 3132 3134 3137 3139 3141 3143 3146 3149 3150 3152 3154 3155 3156 3156 3156 3156 3157 3158 3158 3159 3160 3161 3163 3164 3165 3166 3168 3169 3171 3172 3174 3176 3177 3178 3179 3179 3179 3181 3180 3178 3178
3056 3052 3050 3055 3061 3066 3070 3073 3077 3080 3081 3083 3084 3085 3086 3087 3087 3088 3088 3089 3093 3094 3091 3093 3096 3098 3100 3100 3104 3108 3107 3108 3111 3113 3115 3116 3117 3119 3120 3122 3124 3125 3126 3128 3130 3131 3133 3136 3139 3140 3141 3143 3146 3148 3151 3153 3154 3154 3155 3156 3156 3156 3157 3158 3159 3159 3160 3161 3163 3164 3165 3167 3168 3170 3171 3173 3175 3176 3176 3177 3178 3179 3180 3178 3177 3177
3048 3045 3050 3057 3062 3066 3070 3073 3076 3078 3079 3079 3081 3082 3082 3084 3085 3085 3085 3085 3089 3090 3088 3091 3095 3096 3098 3099 3101 3105 3104 3104 3108 3112 3113 3113 3115 3117 3119 3120 3121 3123 3125 3127 3129 3131 3133 3136 3138 3140 3140 3142 3144 3147 3149 3151 3152 3153 3154 3155 3155 3155 3156 3156 3157 3158 3159 3160 3162 3163 3164 3166 3167 3168 3170 3172 3173 3174 3175 3176 3177 3178 3178 3176 3176 3176
3042 3043 3051 3058 3062 3066 3069 3071 3073 3075 3076 3076 3077 3079 3079 3081 3083 3083 3082 3082 3085 3087 3086 3089 3093 3095 3097 3097 3100 3103 3102 3102 3106 3109 3110 3112 3114 3116 3117 3117 3119 3121 3123 3125 3128 3130 3132 3135 3137 3140 3141 3142 3143 3145 3147 3148 3150 3151 3153 3154 3154 3154 3154 3155 3155 3156 3157 3159 3160 3162 3163 3165 3166 3168 3169 3170 3172 3173 3174 3175 3176 3177 3176 3175 3175 3175
3042 3045 3051 3057 3061 3064 3066 3069 3071 3072 3073 3073 3074 3076 3077 3078 3080 3081 3081 3081 3083 3086 3087 3089 3092 3093 3094 3095 3098 3100 3100 3100 3104 3106 3108 3109 3111 3113 3114 3115 3118 3120 3122 3124 3126 3129 3131 3134 3137 3139 3140 3141 3143 3144 3145 3147 3148 3150 3152 3152 3152 3153 3153 3153 3154 3155 3156 3158 3159 3160 3162 3164 3166 3167 3168 3170 3171 3172 3173 3174 3175 3175 3174 3174 3174 3174
3044 3047 3051 3055 3058 3061 3063 3065 3067 3068 3071 3071 3070 3073 3075 3076 3078 3078 3079 3081 3083 3083 3085 3087 3089 3090 3091 3092 3095 3096 3097 3099 3102 3104 3105 3106 3108 3110 3112 3113 3115 3118 3121 3123 3125 3128 3130 3133 3135 3137 3138 3140 3142 3142 3143 3145 3147 3149 3150 3151 3151 3151 3151 3152 3153 3154 3156 3157 3158 3160 3161 3163 3165 3167 3168 3170 3171 3172 3173 3174 3173 3173 3173 3173 3173 3174
3044 3047 3050 3052 3055 3058 3060 3061 3063 3066 3068 3067 3067 3071 3074 3074 3075 3076 3077 3081 3082 3081 3083 3084 3085 3088 3090 3091 3092 3092 3093 3096 3099 3101 3101 3103 3105 3108 3109 3111 3113 3116 3119 3121 3123 3126 3129 3132 3134 3136 3137 3138 3140 3141 3142 3144 3146 3147 3149 3150 3150 3150 3151 3152 3153 3154 3155 3156 3158 3159 3161 3162 3164 3165 3167 3169 3170 3172 3173 3173 3172 3172 3172 3172 3172 3173
3040 3044 3047 3050 3053 3055 3056 3057 3060 3064 3065 3065 3067 3070 3072 3073 3074 3075 3077 3080 3081 3081 3082 3082 3082 3085 3087 3090 3091 3091 3091 3093 3096 3097 3098 3101 3104 3105 3107 3109 3111 3113 3116 3119 3121 3124 3128 3131 3133 3135 3136 3137 3138 3140 3141 3143 3145 3146 3148 3149 3150 3150 3150 3151 3152 3153 3154 3156 3157 3159 3160 3161 3163 3164 3166 3167 3169 3171 3172 3172 3171 3171 3171 3171 3171 3172
3039 3042 3043 3047 3050 3050 3051 3054 3059 3063 3063 3064 3067 3069 3070 3073 3073 3075 3078 3077 3078 3079 3077 3077 3079 3082 3085 3088 3091 3091 3091 3092 3094 3095 3097 3099 3101 3102 3104 3107 3109 3112 3115 3117 3119 3122 3127 3131 3133 3134 3135 3136 3137 3139 3141 3142 3144 3145 3146 3148 3149 3149 3150 3150 3151 3153 3154 3155 3157 3158 3160 3161 3163 3164 3165 3167 3168 3170 3171 3171 3171 3170 3170 3170 3171 3171
3038 3040 3042 3046 3046 3047 3050 3054 3058 3061 3062 3064 3068 3069 3070 3072 3072 3074 3076 3076 3077 3076 3073 3074 3076 3079 3084 3086 3088 3090 3090 3091 3092 3094 3096 3098 3099 3100 3103 3106 3108 3111 3114 3117 3119 3122 3128 3132 3133 3134 3135 3136 3136 3138 3139 3141 3142 3144 3145 3146 3148 3148 3149 3149 3150 3152 3153 3155 3156 3158 3160 3162 3163 3163 3165 3166 3167 3169 3170 3170 3169 3169 3169 3169 3170 3170
3037 3039 3042 3043 3043 3046 3051 3055 3056 3059 3063 3066 3067 3068 3069 3070 3071 3073 3074 3074 3075 3073 3071 3073 3074 3076 3082 3083 3083 3085 3087 3088 3090 3091 3093 3095 3096 3098 3101 3104 3107 3110 3113 3116 3119 3123 3127 3131 3132 3133 3134 3135 3135 3137 3138 3140 3142 3143 3144 3146 3147 3147 3148 3148 3150 3151 3153 3154 3156 3158 3160 3161 3162 3163 3164 3166 3167 3168 3169 3169 3169 3168 3168 3169 3169 3169
3035 3037 3038 3039 3042 3047 3051 3054 3055 3058 3062 3065 3065 3066 3068 3068 3070 3071 3072 3072 3072 3071 3070 3072 3074 3074 3077 3079 3079 3081 3083 3084 3085 3087 3089 3091 3093 3095 3099 3101 3104 3108 3112 3115 3118 3121 3124 3127 3129 3131 3132 3133 3134 3136 3138 3140 3141 3142 3144 3145 3145 3146 3147 3147 3149 3151 3152 3154 3156 3158 3159 3161 3162 3163 3164 3165 3166 3168 3168 3168 3168 3168 3168 3168 3168 3168
3031 3033 3035 3039 3042 3045 3048 3051 3053 3055 3059 3061 3061 3063 3066 3066 3068 3069 3069 3069 3070 3069 3068 3069 3071 3072 3073 3075 3076 3077 3079 3081 3082 3086 3088 3089 3091 3093 3096 3099 3102 3106 3109 3112 3114 3118 3121 3123 3126 3127 3129 3131 3133 3135 3138 3139 3141 3142 3143 3144 3144 3145 3145 3146 3148 3150 3152 3153 3155 3157 3159 3160 3161 3162 3163 3164 3166 3167 3167 3168 3168 3167 3167 3167 3167 3167
3028 3032 3035 3037 3038 3041 3043 3045 3047 3049 3053 3056 3056 3059 3063 3063 3065 3068 3068 3068 3069 3069 3067 3067 3070 3071 3071 3072 3072 3074 3076 3078 3081 3084 3087 3089 3090 3092 3095 3098 3101 3104 3106 3108 3111 3115 3118 3121 3123 3125 3127 3130 3132 3135 3137 3139 3140 3141 3142 3142 3143 3144 3145 3146 3148 3149 3151 3153 3154 3156 3157 3159 3160 3161 3162 3164 3165 3166 3166 3167 3167 3166 3166 3166 3166 3166
3025 3026 3028 3030 3031 3035 3038 3041 3044 3047 3051 3054 3055 3058 3060 3059 3061 3065 3066 3067 3069 3069 3066 3067 3069 3069 3070 3069 3069 3072 3074 3077 3080 3083 3086 3089 3090 3093 3096 3098 3100 3102 3104 3106 3109 3113 3116 3118 3120 3123 3126 3129 3131 3133 3136 3138 3139 3140 3141 3141 3141 3143 3144 3145 3147 3148 3150 3152 3153 3155 3156 3158 3159 3160 3162 3163 3164 3164 3165 3165 3165 3165 3165 3165 3165 3165
3022 3022 3024 3028 3031 3033 3037 3041 3045 3048 3050 3053 3055 3056 3057 3057 3060 3063 3064 3066 3067 3068 3066 3066 3067 3068 3068 3068 3068 3070 3073 3076 3079 3081 3084 3087 3089 3092 3094 3097 3099 3100 3102 3105 3108 3110 3112 3115 3118 3121 3124 3127 3130 3132 3134 3137 3138 3139 3139 3139 3140 3141 3143 3144 3146 3148 3149 3151 3153 3154 3155 3157 3158 3160 3161 3162 3163 3163 3164 3164 3164 3164 3164 3164 3164 3164
3020 3021 3024 3029 3031 3033 3036 3040 3044 3046 3048 3050 3052 3052 3054 3058 3060 3061 3064 3065 3067 3069 3067 3065 3066 3066 3068 3067 3066 3068 3073 3076 3078 3080 3083 3086 3088 3089 3091 3095 3097 3099 3101 3104 3106 3108 3110 3113 3115 3118 3121 3125 3128 3131 3133 3135 3136 3137 3137 3137 3139 3140 3142 3143 3145 3147 3148 3150 3152 3153 3155 3156 3158 3159 3160 3161 3162 3163 3163 3163 3163 3163 3163 3163 3163 3163
3018 3021 3023 3026 3029 3032 3036 3040 3043 3045 3047 3047 3048 3051 3055 3059 3059 3059 3061 3064 3067 3070 3068 3065 3066 3066 3067 3067 3066 3068 3073 3076 3077 3079 3082 3085 3087 3087 3089 3093 3096 3098 3101 3103 3105 3107 3109 3112 3114 3116 3120 3124 3127 3129 3131 3133 3134 3135 3135 3137 3138 3139 3141 3142 3144 3146 3147 3149 3151 3152 3154 3156 3157 3158 3159 3160 3161 3162 3162 3162 3161 3162 3162 3162 3162 3161
3018 3020 3022 3025 3028 3031 3035 3038 3040 3042 3045 3046 3048 3052 3054 3055 3056 3057 3059 3062 3066 3069 3068 3066 3066 3066 3067 3068 3067 3067 3070 3073 3076 3078 3080 3084 3087 3088 3089 3092 3095 3098 3100 3101 3102 3105 3108 3111 3112 3116 3119 3123 3126 3128 3130 3131 3132 3133 3134 3135 3137 3138 3140 3141 3143 3145 3146 3148 3150 3151 3153 3155 3156 3157 3158 3159 3160 3161 3161 3160 3160 3160 3160 3160 3160 3160
3017 3018 3019 3024 3028 3031 3033 3034 3034 3037 3042 3045 3049 3051 3052 3052 3054 3056 3057 3059 3063 3067 3069 3068 3066 3065 3066 3068 3069 3068 3068 3070 3073 3076 3079 3082 3085 3088 3090 3092 3094 3096 3098 3099 3101 3104 3107 3109 3112 3116 3120 3122 3124 3126 3127 3129 3130 3131 3132 3134 3135 3137 3138 3141 3142 3144 3146 3147 3149 3150 3152 3154 3155 3156 3157 3158 3159 3159 3159 3159 3159 3159 3159 3159 3159 3159
3016 3017 3017 3022 3027 3030 3029 3029 3030 3035 3039 3042 3045 3047 3049 3052 3053 3055 3057 3058 3060 3063 3067 3069 3068 3066 3066 3067 3068 3068 3068 3069 3071 3074 3078 3081 3083 3086 3089 3091 3092 3094 3096 3097 3100 3103 3104 3107 3112 3117 3120 3122 3123 3124 3126 3127 3128 3129 3131 3132 3134 3136 3138 3140 3142 3143 3144 3146 3148 3149 3151 3153 3154 3155 3156 3157 3157 3158 3158 3158 3158 3158 3158 3158 3158 3158
3015 3016 3018 3021 3024 3026 3028 3029 3032 3037 3039 3041 3043 3045 3047 3050 3052 3054 3056 3057 3058 3060 3063 3066 3067 3066 3065 3066 3066 3066 3067 3069 3070 3072 3076 3079 3082 3085 3088 3090 3091 3092 3094 3097 3099 3101 3103 3107 3112 3115 3117 3119 3121 3122 3124 3125 3127 3128 3130 3131 3133 3135 3137 3139 3140 3142 3143 3145 3147 3148 3150 3151 3153 3154 3155 3155 3156 3156 3156 3157 3157 3157 3157 3157 3157 3157
3013 3016 3019 3022 3024 3026 3030 3033 3034 3036 3040 3042 3043 3045 3047 3049 3050 3052 3054 3055 3057 3059 3060 3063 3065 3064 3064 3064 3064 3064 3065 3067 3069 3070 3073 3076 3080 3083 3086 3089 3091 3093 3094 3096 3098 3101 3103 3107 3111 3113 3115 3117 3119 3121 3122 3124 3126 3127 3129 3131 3132 3134 3136 3137 3139 3140 3142 3144 3146 3147 3149 3150 3151 3152 3153 3154 3154 3155 3155 3155 3156 3156 3156 3156 3156 3156
3013 3015 3017 3021 3026 3029 3033 3035 3035 3036 3039 3041 3041 3043 3046 3047 3049 3051 3054 3055 3056 3057 3058 3061 3064 3064 3064 3064 3064 3063 3064 3066 3068 3069 3072 3076 3079 3082 3085 3087 3089 3091 3093 3095 3097 3099 3102 3105 3108 3110 3112 3115 3116 3118 3121 3123 3125 3127 3129 3130 3132 3133 3135 3136 3138 3139 3141 3143 3144 3146 3147 3148 3150 3151 3151 3152 3153 3153 3154 3154 3154 3154 3154 3154 3154 3154
3012 3014 3016 3019 3024 3028 3030 3032 3032 3032 3034 3036 3038 3041 3044 3046 3049 3051 3053 3055 3055 3055 3056 3059 3062 3063 3063 3064 3063 3063 3064 3067 3068 3069 3072 3076 3079 3082 3084 3086 3088 3089 3091 3093 3096 3098 3100 3103 3106 3108 3110 3112 3114 3116 3119 3121 3124 3126 3128 3130 3131 3132 3134 3135 3137 3138 3140 3141 3143 3144 3146 3147 3148 3149 3150 3151 3151 3152 3152 3152 3152 3152 3152 3153 3153 3153
3012 3014 3015 3016 3019 3022 3023 3023 3023 3025 3030 3034 3037 3040 3042 3045 3048 3050 3051 3053 3053 3054 3055 3058 3060 3061 3063 3063 3063 3064 3066 3068 3069 3070 3072 3076 3079 3081 3083 3086 3087 3088 3090 3092 3094 3096 3099 3102 3105 3106 3108 3110 3112 3115 3117 3120 3123 3125 3127 3129 3130 3132 3133 3135 3136 3137 3138 3140 3141 3143 3144 3145 3147 3147 3148 3149 3149 3150 3150 3150 3150 3150 3151 3151 3152 3152
3013 3014 3015 3016 3018 3021 3022 3022 3024 3027 3031 3034 3036 3039 3041 3043 3046 3049 3050 3051 3052 3053 3055 3057 3058 3060 3062 3063 3063 3064 3066 3067 3068 3070 3072 3075 3078 3080 3082 3085 3087 3088 3089 3091 3093 3095 3097 3101 3102 3104 3106 3108 3111 3114 3117 3119 3121 3123 3125 3127 3129 3131 3132 3133 3134 3136 3137 3139 3140 3142 3143 3144 3145 3146 3146 3147 3147 3148 3148 3148 3148 3149 3149 3149 3150 3150
3014 3015 3016 3018 3021 3024 3025 3027 3029 3030 3031 3034 3036 3039 3041 3042 3044 3047 3049 3050 3052 3053 3054 3056 3058 3060 3062 3063 3063 3065 3066 3067 3068 3070 3072 3075 3076 3078 3081 3083 3085 3086 3087 3089 3091 3093 3096 3099 3100 3101 3103 3107 3111 3113 3116 3118 3120 3122 3124 3126 3128 3130 3131 3132 3134 3135 3136 3137 3139 3140 3142 3143 3143 3144 3144 3144 3145 3145 3146 3146 3146 3147 3148 3148 3148 3149
3014 3016 3017 3020 3022 3024 3026 3028 3030 3031 3032 3035 3036 3039 3041 3041 3043 3046 3048 3050 3051 3053 3055 3056 3057 3059 3062 3062 3063 3065 3067 3068 3069 3070 3073 3075 3076 3078 3079 3081 3083 3083 3084 3086 3088 3090 3093 3095 3097 3098 3102 3107 3110 3113 3115 3117 3119 3121 3123 3125 3127 3129 3130 3131 3132 3133 3135 3136 3138 3139 3140 3141 3142 3142 3142 3142 3142 3143 3143 3144 3145 3146 3146 3146 3147 3147
3014 3015 3018 3020 3021 3023 3025 3027 3029 3031 3033 3035 3037 3039 3041 3041 3042 3046 3048 3049 3051 3053 3055 3057 3058 3059 3061 3061 3062 3064 3066 3068 3070 3071 3072 3074 3076 3077 3078 3080 3081 3082 3082 3083 3086 3088 3089 3090 3094 3098 3102 3105 3108 3111 3114 3115 3117 3120 3123 3125 3127 3127 3128 3129 3131 3132 3134 3135 3136 3137 3138 3139 3139 3139 3140 3140 3140 3141 3141 3142 3143 3144 3144 3145 3145 3145
3013 3015 3017 3019 3021 3023 3024 3024 3026 3028 3031 3035 3037 3038 3040 3041 3042 3045 3047 3049 3050 3052 3054 3056 3058 3059 3060 3061 3062 3063 3065 3067 3069 3070 3071 3073 3075 3076 3078 3079 3080 3081 3083 3084 3085 3086 3087 3090 3094 3098 3101 3104 3108 3111 3113 3114 3117 3120 3122 3124 3125 3125 3126 3128 3129 3130 3132 3133 3134 3135 3136 3136 3137 3137 3137 3137 3138 3138 3139 3140 3141 3142 3142 3143 3144 3144
3013 3015 3017 3019 3021 3022 3022 3022 3024 3026 3030 3034 3035 3036 3039 3040 3040 3043 3046 3048 3049 3050 3053 3055 3056 3057 3059 3060 3061 3063 3065 3066 3067 3068 3070 3072 3074 3076 3077 3078 3079 3080 3082 3083 3084 3086 3087 3090 3094 3096 3099 3103 3108 3110 3112 3114 3117 3119 3121 3122 3122 3123 3125 3126 3127 3128 3130 3131 3131 3132 3133 3134 3134 3134 3135 3135 3136 3137 3138 3139 3140 3140 3141 3141 3142 3143
3014 3015 3017 3019 3020 3021 3021 3021 3023 3026 3029 3032 3034 3035 3037 3038 3040 3042 3045 3047 3049 3050 3052 3053 3055 3056 3057 3059 3061 3063 3065 3066 3066 3067 3069 3071 3073 3075 3076 3077 3078 3079 3079 3080 3082 3085 3087 3089 3092 3095 3097 3101 3105 3108 3110 3114 3116 3118 3119 3120 3120 3121 3123 3124 3125 3126 3127 3128 3128 3129 3130 3130 3131 3132 3132 3133 3134 3135 3136 3137 3138 3138 3139 3140 3140 3141
3014 3016 3017 3018 3019 3020 3020 3022 3023 3026 3029 3031 3032 3033 3035 3036 3039 3041 3043 3046 3048 3050 3051 3052 3054 3056 3057 3058 3060 3062 3064 3065 3065 3066 3068 3069 3071 3073 3074 3076 3077 3078 3077 3079 3081 3083 3086 3088 3091 3093 3095 3099 3102 3104 3108 3112 3114 3115 3116 3117 3118 3119 3121 3122 3123 3123 3124 3125 3126 3126 3126 3127 3128 3129 3130 3131 3132 3133 3134 3135 3136 3136 3137 3138 3139 3140
3015 3016 3017 3017 3018 3020 3021 3023 3025 3028 3029 3030 3031 3032 3033 3036 3039 3041 3043 3045 3047 3050 3051 3052 3054 3055 3056 3057 3059 3062 3064 3065 3066 3066 3066 3067 3069 3071 3073 3074 3076 3076 3077 3078 3080 3082 3083 3086 3088 3090 3092 3095 3098 3100 3104 3108 3111 3111 3112 3114 3115 3116 3118 3119 3120 3121 3122 3123 3123 3123 3124 3124 3126 3127 3128 3129 3130 3131 3132 3133 3134 3135 3136 3136 3137 3138
3015 3016 3017 3017 3019 3021 3022 3024 3027 3028 3029 3029 3030 3031 3033 3036 3039 3041 3043 3044 3046 3048 3051 3052 3053 3054 3055 3056 3057 3060 3063 3065 3065 3065 3066 3066 3066 3068 3070 3071 3073 3075 3076 3078 3080 3081 3082 3084 3086 3089 3090 3092 3094 3097 3101 3106 3107 3107 3108 3109 3111 3113 3115 3116 3117 3118 3119 3120 3121 3121 3122 3123 3124 3125 3127 3127 3128 3129 3130 3131 3132 3133 3134 3135 3135 3136
3015 3016 3017 3018 3020 3022 3023 3025 3026 3028 3029 3030 3031 3032 3034 3036 3038 3039 3041 3043 3045 3047 3050 3052 3053 3053 3054 3055 3056 3058 3061 3063 3064 3064 3065 3065 3065 3066 3067 3068 3071 3073 3075 3077 3079 3080 3081 3083 3084 3087 3088 3090 3093 3095 3099 3102 3102 3101 3102 3105 3107 3110 3111 3113 3114 3116 3117 3118 3119 3120 3120 3121 3122 3123 3125 3125 3126 3127 3128 3129 3130 3131 3132 3133 3134 3134
3016 3017 3019 3020 3021 3022 3023 3025 3027 3028 3029 3030 3031 3032 3034 3035 3036 3038 3040 3043 3045 3047 3049 3051 3052 3051 3052 3054 3055 3057 3058 3060 3062 3063 3064 3064 3065 3066 3066 3067 3068 3070 3072 3074 3076 3078 3080 3082 3083 3084 3087 3089 3092 3094 3096 3098 3098 3099 3101 3103 3104 3106 3108 3110 3112 3113 3114 3115 3117 3118 3119 3120 3121 3121 3122 3123 3124 3125 3126 3127 3128 3129 3130 3131 3132 3133
3016 3018 3019 3021 3021 3022 3023 3024 3026 3027 3028 3029 3030 3031 3033 3034 3035 3038 3040 3042 3043 3044 3045 3049 3051 3049 3050 3052 3054 3056 3057 3058 3060 3061 3063 3064 3065 3066 3066 3067 3067 3068 3069 3071 3073 3076 3078 3080 3082 3083 3084 3087 3089 3091 3093 3095 3096 3098 3100 3101 3102 3104 3105 3107 3109 3111 3112 3113 3115 3116 3117 3118 3118 3119 3120 3121 3122 3123 3124 3125 3127 3128 3128 3129 3130 3131
3016 3018 3020 3021 3022 3023 3024 3025 3026 3026 3027 3028 3030 3031 3032 3034 3036 3037 3039 3040 3041 3041 3043 3046 3048 3047 3048 3051 3053 3055 3056 3057 3059 3060 3062 3063 3064 3065 3066 3067 3067 3067 3068 3069 3071 3074 3076 3078 3080 3081 3082 3084 3087 3089 3091 3093 3094 3096 3098 3100 3101 3102 3104 3106 3107 3109 3110 3111 3113 3114 3115 3115 3116 3117 3118 3119 3120 3121 3122 3124 3125 3126 3127 3128 3129 3129
3016 3018 3020 3021 3022 3023 3024 3025 3026 3027 3027 3029 3030 3031 3032 3034 3035 3036 3037 3038 3039 3041 3042 3044 3046 3046 3047 3050 3052 3053 3054 3056 3058 3059 3060 3060 3062 3064 3065 3066 3066 3067 3067 3068 3070 3071 3073 3075 3077 3079 3080 3083 3085 3087 3089 3091 3093 3095 3096 3098 3099 3101 3102 3104 3105 3107 3108 3110 3111 3112 3112 3113 3114 3115 3116 3117 3118 3120 3121 3122 3123 3124 3125 3126 3127 3128
3016 3018 3019 3021 3022 3023 3024 3025 3026 3027 3028 3029 3030 3031 3032 3033 3034 3034 3035 3037 3038 3040 3042 3043 3044 3045 3046 3048 3050 3052 3053 3055 3057 3058 3058 3059 3061 3063 3065 3065 3066 3066 3067 3068 3069 3070 3071 3073 3075 3077 3080 3082 3084 3086 3087 3089 3092 3094 3095 3096 3098 3099 3100 3102 3103 3105 3106 3108 3109 3109 3110 3111 3112 3113 3114 3115 3117 3118 3119 3120 3122 3123 3124 3125 3125 3126
3017 3018 3019 3021 3022 3023 3023 3024 3026 3028 3028 3028 3030 3030 3031 3032 3033 3034 3035 3037 3038 3040 3042 3043 3043 3044 3045 3047 3049 3051 3053 3055 3056 3056 3057 3058 3060 3062 3063 3064 3065 3065 3066 3066 3067 3069 3071 3073 3075 3077 3079 3081 3082 3084 3085 3087 3090 3092 3093 3095 3096 3097 3098 3100 3101 3103 3104 3105 3106 3107 3108 3109 3110 3111 3112 3114 3115 3116 3117 3119 3120 3121 3122 3123 3123 3124
3017 3018 3019 3020 3022 3022 3023 3024 3025 3027 3027 3028 3029 3030 3031 3032 3033 3034 3035 3037 3039 3041 3042 3043 3043 3043 3044 3047 3049 3051 3052 3053 3054 3056 3057 3058 3059 3061 3062 3063 3064 3064 3065 3065 3066 3068 3070 3072 3074 3076 3078 3079 3081 3082 3084 3086 3088 3090 3092 3093 3093 3094 3096 3098 3099 3100 3101 3102 3103 3104 3106 3107 3108 3109 3110 3112 3113 3114 3116 3117 3117 3118 3120 3121 3122 3122
3017 3018 3019 3020 3020 3021 3022 3023 3024 3026 3027 3027 3028 3029 3031 3032 3033 3035 3036 3037 3038 3040 3042 3042 3042 3043 3044 3046 3048 3049 3051 3052 3053 3055 3056 3057 3058 3059 3061 3062 3063 3063 3063 3064 3066 3067 3069 3070 3073 3074 3076 3078 3079 3081 3082 3085 3086 3088 3090 3091 3092 3092 3094 3095 3097 3098 3098 3099 3101 3102 3103 3105 3106 3107 3108 3109 3111 3112 3114 3115 3116 3117 3118 3119 3120 3120
3017 3018 3019 3020 3020 3021 3023 3024 3024 3025 3025 3027 3028 3029 3030 3032 3034 3035 3036 3037 3038 3039 3041 3042 3043 3044 3045 3046 3047 3048 3049 3050 3052 3054 3055 3056 3057 3058 3060 3061 3061 3062 3063 3063 3064 3066 3067 3069 3071 3073 3074 3076 3078 3080 3081 3083 3084 3085 3087 3089 3090 3091 3092 3093 3094 3095 3096 3097 3098 3100 3101 3102 3104 3105 3106 3107 3109 3110 3112 3113 3114 3115 3116 3117 3118 3119
3016 3017 3018 3019 3020 3021 3022 3023 3024 3025 3024 3025 3026 3028 3030 3032 3034 3035 3036 3037 3037 3038 3040 3042 3043 3044 3045 3046 3046 3046 3047 3049 3050 3052 3054 3055 3056 3057 3058 3059 3060 3061 3062 3063 3064 3065 3066 3068 3069 3071 3072 3075 3077 3079 3079 3079 3080 3082 3085 3087 3088 3089 3090 3091 3092 3092 3093 3095 3096 3097 3099 3100 3102 3103 3103 3105 3106 3108 3110 3111 3112 3113 3115 3116 3117 3117
3016 3017 3018 3019 3019 3020 3021 3023 3025 3026 3025 3025 3026 3028 3030 3032 3033 3034 3036 3037 3037 3038 3039 3040 3042 3043 3045 3046 3045 3045 3047 3048 3049 3050 3052 3054 3055 3056 3057 3058 3059 3060 3061 3062 3063 3064 3065 3066 3067 3068 3070 3073 3075 3077 3077 3078 3079 3082 3084 3085 3087 3087 3088 3089 3090 3090 3091 3092 3094 3095 3097 3098 3099 3100 3101 3102 3104 3106 3107 3109 3110 3112 3113 3114 3115 3116
3016 3017 3018 3018 3018 3020 3022 3024 3025 3026 3027 3027 3028 3029 3030 3031 3032 3034 3035 3036 3037 3038 3039 3040 3041 3042 3043 3044 3043 3044 3046 3047 3048 3049 3051 3052 3053 3055 3055 3056 3057 3058 3059 3060 3061 3062 3063 3064 3065 3067 3069 3071 3073 3075 3077 3078 3080 3081 3082 3083 3085 3086 3086 3087 3087 3088 3089 3090 3092 3093 3094 3095 3096 3098 3099 3101 3103 3104 3106 3107 3109 3110 3112 3113 3114 3115
3017 3017 3018 3019 3019 3020 3022 3024 3026 3027 3027 3027 3028 3029 3029 3030 3031 3033 3034 3035 3037 3038 3038 3039 3040 3041 3042 3042 3042 3043 3045 3046 3047 3048 3049 3050 3052 3053 3053 3054 3055 3056 3057 3058 3059 3060 3061 3063 3064 3065 3067 3069 3072 3074 3075 3077 3078 3079 3079 3081 3082 3083 3084 3084 3085 3085 3087 3088 3089 3091 3092 3093 3094 3096 3098 3100 3101 3103 3104 3105 3107 3108 3109 3111 3112 3113
3017 3017 3018 3019 3020 3021 3022 3023 3025 3026 3027 3027 3028 3028 3029 3030 3031 3032 3033 3035 3036 3037 3038 3039 3040 3040 3041 3041 3042 3042 3043 3045 3046 3047 3048 3050 3051 3051 3052 3052 3053 3054 3055 3056 3057 3058 3059 3061 3062 3063 3065 3067 3069 3071 3073 3074 3076 3076 3077 3078 3080 3080 3081 3082 3082 3083 3085 3086 3087 3088 3090 3091 3093 3095 3096 3098 3099 3101 3102 3103 3105 3106 3108 3109 3110 3111